GFSFLT2_500_spd_336.txt.gz
Wind_Speed
68 68 68 68 68 68 68 69 69 69 69 69 69 70 69 69 69 70 72 72 72 71 68 67 66 65 65
66 67 68 69 70 71 72 73 73 72 72 73 74 75 76 77 77 76 75 76 75 73 72 73 73 72 72
67 67 68 68 69 69 70 71 71 72 73 73 74 76 77 78 79 78 77 76 78 79 77 77 77 76 75
68 69 70 71 72 73 75 75 76 76 76 77 77 78 79 79 79 79 78 77 78 79 80 80 81 81 81
76 77 77 77 77 78 79 79 80 80 80 80 80 80 80 81 81 82 82 82 82 81 81 81 82 83 83
75 76 77 78 79 79 80 79 81 82 82 82 82 83 84 84 85 86 86 85 86 86 85 85 84 85 85
72 73 73 74 75 76 77 76 76 77 78 78 80 79 79 78 79 81 83 84 84 85 86 86 87 87 87
68 70 70 72 73 73 74 75 75 74 75 75 78 79 79 80 79 80 80 80 81 82 82 83 83 84 85
66 66 68 69 71 73 74 76 77 78 78 77 77 77 78 79 80 79 78 78 79 81 81 81 82 83 83
64 65 66 67 70 72 74 74 75 75 74 76 78 78 78 79 80 82 83 86 87 86 84 83 83 84 84
56 57 58 59 59 62 64 65 66 67 69 71 72 75 78 79 78 79 82 83 84 84 85 87 89 89 87
57 57 58 59 60 60 61 61 62 62 64 65 64 65 67 66 67 69 72 75 78 80 82 84 85 87 89
55 56 57 59 61 62 62 63 63 63 64 65 65 65 66 65 64 64 64 66 67 68 70 71 72 74 76
58 59 60 61 63 64 65 67 67 67 67 68 68 69 68 68 67 65 67 66 67 69 68 67 68 70 70
60 61 62 63 64 66 67 69 70 70 70 71 73 73 72 71 70 70 70 70 70 69 70 69 68 69 70
59 61 62 64 65 67 68 69 71 71 71 72 74 74 74 72 71 71 71 71 71 70 70 70 67 68 68
62 63 66 68 70 71 73 74 75 76 76 77 77 78 77 76 75 74 72 74 74 74 74 73 72 70 72

GFSFLT2_500_spd_339.txt.gz
Wind_Speed
65 67 68 69 69 69 70 70 69 70 69 69 69 69 68 67 67 66 66 66 66 65 65 65 64 64 65
67 67 67 67 68 68 69 69 70 71 72 73 73 73 72 71 71 71 70 70 69 70 70 71 71 70 70
68 68 69 69 70 70 71 71 72 73 73 74 74 75 75 75 76 75 75 75 76 76 77 78 78 78 77
69 69 69 69 70 70 71 70 71 71 72 73 73 73 74 74 75 76 76 76 76 76 78 78 79 79 79
68 69 70 70 71 71 72 71 71 71 72 73 74 75 76 77 77 77 78 79 80 80 80 80 81 82 82
69 71 72 73 74 75 76 77 78 79 80 80 81 82 83 83 84 84 84 84 85 85 85 85 85 84 84
66 68 70 71 73 75 76 76 77 78 79 79 82 82 83 82 83 84 85 85 85 85 86 87 88 88 88
68 69 71 72 73 74 74 75 75 75 77 76 77 78 79 80 80 80 82 82 83 83 83 84 85 85 85
70 70 70 71 73 75 75 76 75 74 75 76 75 76 77 78 79 80 80 81 81 82 82 82 82 83 82
70 69 70 70 71 72 73 73 74 74 74 77 77 78 78 78 78 79 80 81 82 83 83 83 83 84 84
57 58 58 59 59 60 61 62 63 63 64 67 67 67 68 69 69 70 72 75 79 80 82 83 83 84 84
52 54 56 57 58 60 61 62 62 63 63 65 65 66 65 64 64 64 64 66 67 67 68 69 70 72 76
53 55 56 57 58 60 61 62 62 63 64 66 67 68 68 67 67 67 67 67 68 68 69 68 67 68 67
57 58 59 60 62 63 65 66 66 67 68 69 71 72 72 72 72 71 71 71 71 73 73 70 70 70 69
57 58 59 61 62 63 64 65 66 67 68 70 71 72 73 74 74 74 74 74 74 74 74 74 73 72 73
56 57 58 60 61 63 64 66 66 67 68 70 72 74 75 74 75 74 75 75 76 75 74 74 72 72 72
57 58 60 61 62 64 66 68 69 71 72 73 75 77 79 79 78 79 79 79 79 79 79 78 77 73 73

GFSFLT2_500_spd_342.txt.gz
Wind_Speed
65 65 66 65 66 66 67 67 68 68 68 68 68 68 69 69 68 67 66 66 65 64 64 64 63 62 62
67 67 68 70 70 71 72 71 70 71 71 71 71 71 72 71 71 71 71 70 70 70 69 68 67 66 66
66 66 67 68 69 69 70 72 73 73 74 73 73 73 73 73 73 73 73 73 73 73 73 73 73 73 72
66 67 68 68 68 68 69 69 70 71 73 73 73 74 74 74 75 75 74 74 74 74 74 75 76 76 77
65 65 65 66 67 68 68 69 69 70 72 72 73 75 74 74 75 75 74 73 73 73 74 75 76 77 77
64 65 66 67 69 71 72 72 72 74 74 74 75 76 77 78 78 78 79 79 80 80 81 81 81 81 80
69 68 67 65 63 62 63 64 66 68 69 70 73 75 76 76 77 78 79 80 82 82 83 84 85 85 85
61 62 62 63 65 66 68 69 71 72 73 72 74 75 76 77 77 78 79 79 81 82 82 83 83 84 84
64 66 68 70 72 74 76 76 74 74 76 78 77 76 77 77 78 78 78 79 81 82 83 84 84 85 84
70 71 71 71 71 72 73 73 73 74 72 75 76 78 76 74 75 79 81 82 82 83 83 84 84 85 85
60 58 58 58 57 58 59 60 61 62 62 62 62 64 66 67 64 64 66 69 69 71 72 73 73 75 76
42 44 46 47 48 49 51 53 54 55 57 59 59 61 62 61 61 63 65 65 66 67 68 68 68 68 68
45 47 49 51 53 55 57 58 59 60 62 64 65 66 67 67 66 66 67 68 69 70 70 71 70 70 69
47 49 51 53 54 56 58 60 61 61 64 65 66 68 68 69 70 70 71 72 73 74 76 75 75 74 74
49 51 53 55 56 58 59 60 61 61 62 64 67 68 69 70 70 71 71 72 74 74 75 75 74 75 75
51 53 55 56 56 57 58 58 59 59 61 64 66 68 70 70 74 75 76 76 78 78 78 78 77 77 77
55 57 57 56 55 55 57 59 60 62 65 68 71 75 76 76 76 79 82 82 84 84 85 85 85 83 81

GFSFLT2_500_spd_345.txt.gz
Wind_Speed
64 64 64 65 66 66 66 66 67 67 67 67 68 68 68 68 67 67 67 66 66 65 65 64 63 63 62
65 67 67 67 68 69 70 71 71 72 72 73 73 73 73 73 73 72 71 71 71 71 70 69 68 67 67
64 64 65 65 65 66 68 69 69 69 71 71 72 73 73 74 74 75 75 74 74 73 73 73 72 72 72
60 61 62 64 65 67 67 69 69 69 71 71 71 71 71 71 72 73 73 73 74 74 74 75 76 76 76
58 60 61 62 63 64 65 65 67 67 68 68 69 71 71 71 71 72 73 73 74 74 75 75 75 74 75
58 59 60 61 62 63 64 64 66 67 69 71 72 74 74 75 76 76 76 78 78 78 78 79 79 79 79
60 61 62 64 65 68 68 69 69 70 69 69 70 69 69 69 69 70 72 74 74 76 77 78 78 79 79
60 61 62 62 62 63 64 64 65 67 68 66 70 71 72 73 75 76 76 77 78 78 79 80 80 80 80
60 61 63 65 66 66 67 67 69 71 74 73 75 76 76 76 78 79 79 79 80 81 81 82 82 83 83
67 67 69 70 72 73 74 74 75 75 73 75 75 76 73 70 69 71 73 76 77 76 77 78 79 80 80
68 67 66 65 64 63 63 62 62 62 60 59 58 59 62 61 58 59 61 63 65 65 66 68 69 69 70
52 49 47 45 45 45 45 47 49 50 52 54 55 57 58 58 59 61 62 64 65 65 66 68 69 70 69
40 41 43 44 46 47 48 49 50 52 54 56 58 59 61 62 63 64 65 65 67 69 70 71 72 73 73
43 44 44 45 46 47 48 50 51 54 57 59 61 62 63 63 65 64 65 66 66 67 70 70 71 72 74
44 45 46 47 49 51 52 54 56 57 59 60 62 62 61 62 62 64 66 67 70 71 73 74 74 75 75
48 50 51 52 54 55 56 58 59 60 59 58 59 61 62 63 67 68 70 73 76 78 80 81 82 82 83
51 53 54 54 55 56 57 59 59 58 58 61 63 65 66 66 67 75 78 81 83 84 84 84 85 83 84